Tracking 29892 objects as of 21-Nov-2024
HD Live streaming from Space Station
objects crossing your sky now

STARLINK-30755

Track STARLINK-30755 now!
10-day predictions
STARLINK-30755 is classified as:


NORAD ID: 58186
Int'l Code: 2023-167M
Perigee: 565.5 km
Apogee: 567.0 km
Inclination: 43.0 °
Period: 95.8 minutes
Semi major axis: 6937 km
RCS: Unknown
Launch date: October 30, 2023
Source: United States (US)
Launch site: AIR FORCE EASTERN TEST RANGE (AFETR)
Your satellite tracking list
Your tracking list is empty




NASA's NSSDC Master Catalog

Two Line Element Set (TLE):
1 58186U 23167M   24326.10444741 -.00001505  00000-0 -96388-4 0  9990
2 58186  43.0031 199.4471 0001080 253.7670 106.3054 15.02521408 59668
Source of the keplerian elements: AFSPC